| time (UTC) | temp F | wind direction | speed knots | gust knots | rain 1hr in | rain 24hr in | rain mn in | humidity % | barometer mb |
| 20260508152509 | 68 | 184 | 3.5 | 6.1 | 0.00 | 0.00 | 0.00 | 15 | 1023.5 |
| 20260508152005 | 67 | 185 | 1.7 | 2.6 | 0.00 | 0.00 | 0.00 | 16 | 1023.4 |
| 20260508151501 | 67 | 215 | 0.0 | 0.9 | 0.00 | 0.00 | 0.00 | 15 | 1023.5 |
| 20260508150958 | 67 | 168 | 1.7 | 3.5 | 0.00 | 0.00 | 0.00 | 16 | 1023.6 |
| 20260508150455 | 66 | 184 | 0.9 | 3.5 | 0.00 | 0.00 | 0.00 | 16 | 1023.5 |
| 20260508145950 | 66 | 209 | 0.9 | 3.5 | 0.00 | 0.00 | 0.00 | 16 | 1023.5 |
| 20260508145447 | 66 | 186 | 3.5 | 3.5 | 0.00 | 0.00 | 0.00 | 17 | 1023.4 |
| 20260508144944 | 65 | 133 | 2.6 | 5.2 | 0.00 | 0.00 | 0.00 | 17 | 1023.4 |
| 20260508144442 | 65 | 169 | 0.9 | 3.5 | 0.00 | 0.00 | 0.00 | 17 | 1023.5 |
| 20260508143939 | 64 | 158 | 1.7 | 5.2 | 0.00 | 0.00 | 0.00 | 17 | 1023.6 |
| 20260508143437 | 64 | 161 | 2.6 | 5.2 | 0.00 | 0.00 | 0.00 | 17 | 1023.4 |
| 20260508142932 | 64 | 163 | 3.5 | 5.2 | 0.00 | 0.00 | 0.00 | 17 | 1023.5 |
| 20260508142430 | 63 | 206 | 3.5 | 5.2 | 0.00 | 0.00 | 0.00 | 18 | 1023.5 |
| 20260508141926 | 63 | 172 | 4.3 | 6.1 | 0.00 | 0.00 | 0.00 | 18 | 1023.6 |
| 20260508141423 | 63 | 196 | 2.6 | 6.1 | 0.00 | 0.00 | 0.00 | 18 | 1023.5 |
| 20260508140921 | 63 | 193 | 3.5 | 5.2 | 0.00 | 0.00 | 0.00 | 18 | 1023.5 |
| 20260508140417 | 62 | 173 | 0.9 | 1.7 | 0.00 | 0.00 | 0.00 | 19 | 1023.4 |
| 20260508135913 | 61 | 206 | 0.9 | 1.7 | 0.00 | 0.00 | 0.00 | 20 | 1023.2 |
| 20260508135410 | 60 | 162 | 1.7 | 1.7 | 0.00 | 0.00 | 0.00 | 20 | 1023.2 |
| 20260508134907 | 58 | 194 | 0.9 | 2.6 | 0.00 | 0.00 | 0.00 | 21 | 1023.2 |
| 20260508134403 | 57 | 187 | 1.7 | 2.6 | 0.00 | 0.00 | 0.00 | 21 | 1023.4 |
| 20260508133900 | 57 | 185 | 1.7 | 1.7 | 0.00 | 0.00 | 0.00 | 21 | 1023.2 |
| 20260508133358 | 56 | 133 | 2.6 | 3.5 | 0.00 | 0.00 | 0.00 | 21 | 1023.0 |
| 20260508132854 | 56 | 154 | 1.7 | 3.5 | 0.00 | 0.00 | 0.00 | 21 | 1023.1 |
| 20260508132352 | 56 | 185 | 1.7 | 3.5 | 0.00 | 0.00 | 0.00 | 21 | 1023.1 |
| 20260508131849 | 55 | 165 | 1.7 | 2.6 | 0.00 | 0.00 | 0.00 | 21 | 1023.0 |
| 20260508131344 | 54 | 192 | 1.7 | 2.6 | 0.00 | 0.00 | 0.00 | 22 | 1023.0 |
| 20260508130841 | 53 | 152 | 2.6 | 2.6 | 0.00 | 0.00 | 0.00 | 22 | 1022.9 |
| 20260508130338 | 52 | 159 | 1.7 | 1.7 | 0.00 | 0.00 | 0.00 | 23 | 1022.9 |
| 20260508125834 | 50 | 170 | 0.9 | 1.7 | 0.00 | 0.00 | 0.00 | 23 | 1023.0 |
| 20260508125330 | 50 | 183 | 1.7 | 2.6 | 0.00 | 0.00 | 0.00 | 23 | 1022.9 |
| 20260508124828 | 50 | 179 | 2.6 | 3.5 | 0.00 | 0.00 | 0.00 | 23 | 1022.6 |
| 20260508124325 | 49 | 158 | 1.7 | 3.5 | 0.00 | 0.00 | 0.00 | 23 | 1022.9 |
| 20260508123823 | 49 | 115 | 3.5 | 5.2 | 0.00 | 0.00 | 0.00 | 23 | 1022.9 |
| 20260508123321 | 49 | 171 | 2.6 | 3.5 | 0.00 | 0.00 | 0.00 | 23 | 1022.6 |
| 20260508122817 | 48 | 166 | 1.7 | 3.5 | 0.00 | 0.00 | 0.00 | 24 | 1022.8 |
| 20260508122314 | 47 | 146 | 2.6 | 2.6 | 0.00 | 0.00 | 0.00 | 24 | 1022.6 |
| 20260508121812 | 46 | 187 | 2.6 | 2.6 | 0.00 | 0.00 | 0.00 | 25 | 1022.4 |
| 20260508121310 | 46 | 195 | 2.6 | 2.6 | 0.00 | 0.00 | 0.00 | 25 | 1022.5 |
| 20260508120807 | 45 | 184 | 2.6 | 2.6 | 0.00 | 0.00 | 0.00 | 25 | 1022.4 |
| 20260508120305 | 46 | 190 | 2.6 | 2.6 | 0.00 | 0.00 | 0.00 | 25 | 1022.6 |
| 20260508115802 | 44 | 186 | 1.7 | 2.6 | 0.00 | 0.00 | 0.00 | 26 | 1022.4 |
| 20260508115300 | 44 | 192 | 2.6 | 2.6 | 0.00 | 0.00 | 0.00 | 26 | 1022.5 |
| 20260508114756 | 45 | 195 | 1.7 | 1.7 | 0.00 | 0.00 | 0.00 | 25 | 1022.4 |
| 20260508114253 | 46 | 197 | 1.7 | 1.7 | 0.00 | 0.00 | 0.00 | 24 | 1022.5 |
| 20260508113749 | 47 | 187 | 0.9 | 1.7 | 0.00 | 0.00 | 0.00 | 24 | 1022.5 |
| 20260508113248 | 46 | 175 | 1.7 | 1.7 | 0.00 | 0.00 | 0.00 | 24 | 1022.5 |
| 20260508112744 | 46 | 199 | 0.9 | 1.7 | 0.00 | 0.00 | 0.00 | 24 | 1022.5 |
| 20260508112241 | 48 | 194 | 0.9 | 1.7 | 0.00 | 0.00 | 0.00 | 22 | 1022.5 |
| 20260508111737 | 49 | 168 | 1.7 | 2.6 | 0.00 | 0.00 | 0.00 | 22 | 1022.5 |
| 20260508111235 | 48 | 143 | 2.6 | 3.5 | 0.00 | 0.00 | 0.00 | 22 | 1022.5 |
| 20260508110732 | 49 | 175 | 2.6 | 3.5 | 0.00 | 0.00 | 0.00 | 21 | 1022.6 |
| 20260508110230 | 50 | 160 | 2.6 | 5.2 | 0.00 | 0.00 | 0.00 | 21 | 1022.6 |
| 20260508105729 | 50 | 163 | 3.5 | 5.2 | 0.00 | 0.00 | 0.00 | 20 | 1022.5 |
| 20260508105226 | 48 | 148 | 2.6 | 2.6 | 0.00 | 0.00 | 0.00 | 21 | 1022.8 |
| 20260508104724 | 47 | 174 | 1.7 | 2.6 | 0.00 | 0.00 | 0.00 | 22 | 1022.5 |
| 20260508104220 | 47 | 191 | 0.9 | 1.7 | 0.00 | 0.00 | 0.00 | 22 | 1022.6 |
| 20260508103718 | 48 | 183 | 0.9 | 1.7 | 0.00 | 0.00 | 0.00 | 21 | 1022.6 |
| 20260508103215 | 48 | 179 | 1.7 | 2.6 | 0.00 | 0.00 | 0.00 | 21 | 1022.5 |
| 20260508102712 | 48 | 173 | 1.7 | 2.6 | 0.00 | 0.00 | 0.00 | 21 | 1022.8 |
| 20260508102210 | 49 | 153 | 1.7 | 2.6 | 0.00 | 0.00 | 0.00 | 21 | 1022.6 |
| 20260508101707 | 49 | 160 | 2.6 | 5.2 | 0.00 | 0.00 | 0.00 | 21 | 1022.4 |
| 20260508101205 | 50 | 176 | 1.7 | 3.5 | 0.00 | 0.00 | 0.00 | 21 | 1022.5 |
| 20260508100702 | 50 | 140 | 4.3 | 5.2 | 0.00 | 0.00 | 0.00 | 20 | 1022.4 |
| 20260508100200 | 50 | 174 | 2.6 | 5.2 | 0.00 | 0.00 | 0.00 | 21 | 1022.4 |
| 20260508095655 | 49 | 138 | 3.5 | 5.2 | 0.00 | 0.00 | 0.00 | 21 | 1022.5 |
| 20260508095153 | 49 | 155 | 1.7 | 2.6 | 0.00 | 0.00 | 0.00 | 21 | 1022.3 |
| 20260508094649 | 49 | 166 | 1.7 | 3.5 | 0.00 | 0.00 | 0.00 | 21 | 1022.6 |
| 20260508094146 | 50 | 151 | 2.6 | 3.5 | 0.00 | 0.00 | 0.00 | 21 | 1022.3 |
| 20260508093644 | 51 | 184 | 2.6 | 3.5 | 0.00 | 0.00 | 0.00 | 20 | 1022.4 |
| 20260508093141 | 50 | 153 | 3.5 | 5.2 | 0.00 | 0.00 | 0.00 | 20 | 1022.3 |
| 20260508092638 | 48 | 177 | 3.5 | 7.0 | 0.00 | 0.00 | 0.00 | 21 | 1022.4 |
| 20260508092137 | 48 | 170 | 2.6 | 3.5 | 0.00 | 0.00 | 0.00 | 22 | 1022.6 |
| 20260508091634 | 48 | 172 | 1.7 | 3.5 | 0.00 | 0.00 | 0.00 | 21 | 1022.5 |
| 20260508091131 | 47 | 183 | 2.6 | 3.5 | 0.00 | 0.00 | 0.00 | 22 | 1022.5 |
| 20260508090629 | 47 | 193 | 2.6 | 3.5 | 0.00 | 0.00 | 0.00 | 22 | 1022.6 |
| 20260508090126 | 47 | 160 | 2.6 | 3.5 | 0.00 | 0.00 | 0.00 | 22 | 1022.4 |
| 20260508085622 | 47 | 174 | 2.6 | 3.5 | 0.00 | 0.00 | 0.00 | 22 | 1022.8 |
| 20260508085119 | 45 | 174 | 2.6 | 3.5 | 0.00 | 0.00 | 0.00 | 22 | 1022.6 |
| 20260508084616 | 43 | 175 | 1.7 | 2.6 | 0.00 | 0.00 | 0.00 | 24 | 1022.6 |
| 20260508084113 | 42 | 185 | 2.6 | 2.6 | 0.00 | 0.00 | 0.00 | 24 | 1022.6 |
| 20260508083610 | 43 | 184 | 1.7 | 2.6 | 0.00 | 0.00 | 0.00 | 24 | 1022.5 |
| 20260508083107 | 42 | 197 | 1.7 | 1.7 | 0.00 | 0.00 | 0.00 | 24 | 1022.5 |
| 20260508082603 | 42 | 195 | 1.7 | 1.7 | 0.00 | 0.00 | 0.00 | 24 | 1022.6 |
| 20260508082100 | 43 | 185 | 1.7 | 1.7 | 0.00 | 0.00 | 0.00 | 23 | 1022.6 |
| 20260508081552 | 42 | 183 | 1.7 | 1.7 | 0.00 | 0.00 | 0.00 | 24 | 1022.9 |
| 20260508081047 | 42 | 193 | 0.9 | 1.7 | 0.00 | 0.00 | 0.00 | 24 | 1022.9 |
| 20260508080546 | 42 | 190 | 1.7 | 2.6 | 0.00 | 0.00 | 0.00 | 24 | 1022.9 |
| 20260508080043 | 43 | 192 | 1.7 | 2.6 | 0.00 | 0.00 | 0.00 | 23 | 1022.8 |
| 20260508075539 | 46 | 189 | 1.7 | 1.7 | 0.00 | 0.00 | 0.00 | 22 | 1022.9 |
| 20260508075037 | 47 | 189 | 1.7 | 1.7 | 0.00 | 0.00 | 0.00 | 21 | 1023.0 |
| 20260508074534 | 46 | 173 | 1.7 | 1.7 | 0.00 | 0.00 | 0.00 | 21 | 1022.9 |
| 20260508074031 | 46 | 191 | 1.7 | 1.7 | 0.00 | 0.00 | 0.00 | 21 | 1023.0 |
| 20260508073528 | 46 | 182 | 1.7 | 2.6 | 0.00 | 0.00 | 0.00 | 21 | 1023.1 |
| 20260508073026 | 46 | 184 | 1.7 | 2.6 | 0.00 | 0.00 | 0.00 | 21 | 1023.1 |
| 20260508072521 | 44 | 174 | 2.6 | 2.6 | 0.00 | 0.00 | 0.00 | 22 | 1023.1 |
| 20260508072019 | 44 | 188 | 1.7 | 2.6 | 0.00 | 0.00 | 0.00 | 22 | 1022.9 |
| 20260508071517 | 44 | 187 | 1.7 | 1.7 | 0.00 | 0.00 | 0.00 | 22 | 1023.2 |
| 20260508071014 | 41 | 181 | 1.7 | 1.7 | 0.00 | 0.00 | 0.00 | 24 | 1023.1 |
| 20260508070512 | 39 | 183 | 1.7 | 1.7 | 0.00 | 0.00 | 0.00 | 25 | 1023.1 |
| 20260508070010 | 40 | 193 | 1.7 | 2.6 | 0.00 | 0.00 | 0.00 | 24 | 1023.1 |
| 20260508065507 | 42 | 196 | 1.7 | 2.6 | 0.00 | 0.00 | 0.00 | 23 | 1023.1 |
| 20260508065006 | 45 | 195 | 1.7 | 1.7 | 0.00 | 0.00 | 0.00 | 22 | 1023.2 |
| 20260508064503 | 46 | 190 | 0.9 | 1.7 | 0.00 | 0.00 | 0.00 | 22 | 1023.1 |
| 20260508064000 | 46 | 185 | 1.7 | 2.6 | 0.00 | 0.00 | 0.00 | 22 | 1023.1 |
| 20260508063457 | 46 | 180 | 0.9 | 1.7 | 0.00 | 0.00 | 0.00 | 21 | 1023.1 |
| 20260508062955 | 44 | 183 | 1.7 | 1.7 | 0.00 | 0.00 | 0.00 | 22 | 1023.1 |
| 20260508062453 | 41 | 188 | 0.9 | 1.7 | 0.00 | 0.00 | 0.00 | 24 | 1023.2 |
| 20260508061949 | 41 | 194 | 0.9 | 1.7 | 0.00 | 0.00 | 0.00 | 24 | 1023.0 |
| 20260508061447 | 42 | 192 | 0.9 | 1.7 | 0.00 | 0.00 | 0.00 | 23 | 1023.4 |
| 20260508060943 | 42 | 192 | 0.9 | 0.9 | 0.00 | 0.00 | 0.00 | 24 | 1023.1 |
| 20260508060441 | 43 | 192 | 1.7 | 1.7 | 0.00 | 0.00 | 0.00 | 23 | 1023.4 |
| 20260508055936 | 42 | 178 | 1.7 | 2.6 | 0.00 | 0.00 | 0.00 | 23 | 1023.1 |
| 20260508055434 | 44 | 197 | 1.7 | 1.7 | 0.00 | 0.00 | 0.00 | 23 | 1023.1 |
| 20260508054929 | 44 | 193 | 0.0 | 0.9 | 0.00 | 0.00 | 0.00 | 23 | 1023.4 |
| 20260508054427 | 46 | 209 | 0.0 | 0.0 | 0.00 | 0.00 | 0.00 | 22 | 1023.4 |
| 20260508053924 | 47 | 166 | 1.7 | 1.7 | 0.00 | 0.00 | 0.00 | 21 | 1023.1 |
| 20260508053421 | 46 | 186 | 0.9 | 1.7 | 0.00 | 0.00 | 0.00 | 21 | 1023.2 |
| 20260508052919 | 46 | 170 | 1.7 | 2.6 | 0.00 | 0.00 | 0.00 | 21 | 1023.4 |
| 20260508052416 | 46 | 186 | 1.7 | 1.7 | 0.00 | 0.00 | 0.00 | 21 | 1023.4 |
| 20260508051912 | 46 | 177 | 1.7 | 1.7 | 0.00 | 0.00 | 0.00 | 21 | 1023.4 |
| 20260508051408 | 45 | 177 | 1.7 | 1.7 | 0.00 | 0.00 | 0.00 | 21 | 1023.4 |
| 20260508050904 | 43 | 194 | 0.9 | 1.7 | 0.00 | 0.00 | 0.00 | 22 | 1023.5 |
| 20260508050401 | 43 | 195 | 0.9 | 1.7 | 0.00 | 0.00 | 0.00 | 22 | 1023.2 |
| 20260508045857 | 44 | 196 | 1.7 | 1.7 | 0.00 | 0.00 | 0.00 | 21 | 1023.6 |
| 20260508045355 | 44 | 190 | 1.7 | 1.7 | 0.00 | 0.00 | 0.00 | 21 | 1023.2 |
| 20260508044852 | 44 | 191 | 1.7 | 2.6 | 0.00 | 0.00 | 0.00 | 21 | 1023.2 |
| 20260508044348 | 45 | 188 | 1.7 | 2.6 | 0.00 | 0.00 | 0.00 | 21 | 1023.2 |
| 20260508043844 | 45 | 195 | 2.6 | 2.6 | 0.00 | 0.00 | 0.00 | 21 | 1023.4 |
| 20260508043342 | 45 | 194 | 2.6 | 2.6 | 0.00 | 0.00 | 0.00 | 21 | 1023.2 |
| 20260508042838 | 44 | 198 | 2.6 | 2.6 | 0.00 | 0.00 | 0.00 | 21 | 1023.5 |
| 20260508042336 | 45 | 193 | 1.7 | 2.6 | 0.00 | 0.00 | 0.00 | 21 | 1023.4 |
| 20260508041833 | 45 | 199 | 1.7 | 2.6 | 0.00 | 0.00 | 0.00 | 21 | 1023.2 |
| 20260508041329 | 45 | 195 | 2.6 | 2.6 | 0.00 | 0.00 | 0.00 | 21 | 1023.4 |
| 20260508040826 | 45 | 198 | 2.6 | 2.6 | 0.00 | 0.00 | 0.00 | 21 | 1023.6 |
| 20260508040323 | 46 | 195 | 2.6 | 2.6 | 0.00 | 0.00 | 0.00 | 20 | 1023.5 |
| 20260508035820 | 46 | 194 | 2.6 | 2.6 | 0.00 | 0.00 | 0.00 | 20 | 1023.4 |
| 20260508035318 | 47 | 191 | 2.6 | 2.6 | 0.00 | 0.00 | 0.00 | 20 | 1023.2 |
| 20260508034814 | 47 | 195 | 2.6 | 2.6 | 0.00 | 0.00 | 0.00 | 20 | 1023.2 |
| 20260508034312 | 48 | 194 | 2.6 | 2.6 | 0.00 | 0.00 | 0.00 | 20 | 1023.2 |
| 20260508033808 | 49 | 196 | 1.7 | 2.6 | 0.00 | 0.00 | 0.00 | 20 | 1023.0 |
| 20260508033307 | 49 | 194 | 2.6 | 2.6 | 0.00 | 0.00 | 0.00 | 19 | 1023.1 |
| 20260508032804 | 50 | 192 | 2.6 | 3.5 | 0.00 | 0.00 | 0.00 | 19 | 1023.0 |
| 20260508032301 | 49 | 197 | 3.5 | 3.5 | 0.00 | 0.00 | 0.00 | 19 | 1023.0 |
| 20260508031758 | 50 | 200 | 2.6 | 2.6 | 0.00 | 0.00 | 0.00 | 19 | 1023.2 |
| 20260508031254 | 50 | 192 | 2.6 | 2.6 | 0.00 | 0.00 | 0.00 | 19 | 1022.9 |
| 20260508030751 | 51 | 194 | 2.6 | 2.6 | 0.00 | 0.00 | 0.00 | 19 | 1022.9 |
| 20260508030248 | 51 | 199 | 2.6 | 2.6 | 0.00 | 0.00 | 0.00 | 19 | 1022.9 |
| 20260508025744 | 51 | 194 | 2.6 | 3.5 | 0.00 | 0.00 | 0.00 | 19 | 1022.6 |
| 20260508025242 | 51 | 197 | 2.6 | 2.6 | 0.00 | 0.00 | 0.00 | 19 | 1022.8 |
| 20260508024738 | 52 | 194 | 2.6 | 2.6 | 0.00 | 0.00 | 0.00 | 18 | 1022.5 |
| 20260508024235 | 53 | 196 | 2.6 | 2.6 | 0.00 | 0.00 | 0.00 | 18 | 1022.4 |
| 20260508023732 | 54 | 197 | 2.6 | 2.6 | 0.00 | 0.00 | 0.00 | 18 | 1022.5 |
| 20260508023229 | 55 | 195 | 1.7 | 1.7 | 0.00 | 0.00 | 0.00 | 17 | 1022.4 |
| 20260508022725 | 56 | 195 | 1.7 | 1.7 | 0.00 | 0.00 | 0.00 | 17 | 1022.5 |
| 20260508022221 | 58 | 195 | 1.7 | 2.6 | 0.00 | 0.00 | 0.00 | 16 | 1022.3 |
| 20260508021718 | 60 | 198 | 1.7 | 1.7 | 0.00 | 0.00 | 0.00 | 15 | 1022.4 |
| 20260508021214 | 61 | 214 | 1.7 | 2.6 | 0.00 | 0.00 | 0.00 | 15 | 1022.3 |
| 20260508020711 | 62 | 214 | 1.7 | 3.5 | 0.00 | 0.00 | 0.00 | 15 | 1022.1 |
| 20260508020208 | 63 | 220 | 0.9 | 1.7 | 0.00 | 0.00 | 0.00 | 14 | 1022.1 |
| 20260508015706 | 64 | 212 | 0.9 | 2.6 | 0.00 | 0.00 | 0.00 | 14 | 1022.3 |
| 20260508015202 | 65 | 236 | 0.9 | 3.5 | 0.00 | 0.00 | 0.00 | 14 | 1022.0 |
| 20260508014659 | 65 | 236 | 1.7 | 2.6 | 0.00 | 0.00 | 0.00 | 13 | 1022.0 |
| 20260508014155 | 66 | 191 | 3.5 | 5.2 | 0.00 | 0.00 | 0.00 | 13 | 1021.9 |
| 20260508013652 | 66 | 218 | 1.7 | 2.6 | 0.00 | 0.00 | 0.00 | 12 | 1021.9 |
| 20260508013148 | 66 | 229 | 1.7 | 5.2 | 0.00 | 0.00 | 0.00 | 12 | 1021.9 |
| 20260508012646 | 67 | 256 | 4.3 | 6.1 | 0.00 | 0.00 | 0.00 | 12 | 1021.9 |
| 20260508012143 | 67 | 225 | 1.7 | 3.5 | 0.00 | 0.00 | 0.00 | 12 | 1021.8 |
| 20260508011641 | 67 | 209 | 3.5 | 6.1 | 0.00 | 0.00 | 0.00 | 12 | 1021.8 |
| 20260508011138 | 67 | 208 | 3.5 | 5.2 | 0.00 | 0.00 | 0.00 | 12 | 1021.9 |
| 20260508010635 | 67 | 205 | 2.6 | 5.2 | 0.00 | 0.00 | 0.00 | 12 | 1021.8 |
| 20260508010133 | 67 | 258 | 4.3 | 6.1 | 0.00 | 0.00 | 0.00 | 12 | 1021.8 |
| 20260508005630 | 68 | 226 | 4.3 | 6.1 | 0.00 | 0.00 | 0.00 | 11 | 1021.5 |
| 20260508005126 | 68 | 241 | 5.2 | 7.8 | 0.00 | 0.00 | 0.00 | 11 | 1021.7 |
| 20260508004622 | 68 | 220 | 3.5 | 6.1 | 0.00 | 0.00 | 0.00 | 11 | 1021.7 |
| 20260508004119 | 68 | 218 | 5.2 | 7.8 | 0.00 | 0.00 | 0.00 | 12 | 1021.8 |
| 20260508003615 | 68 | 218 | 2.6 | 6.1 | 0.00 | 0.00 | 0.00 | 11 | 1021.7 |
| 20260508003113 | 68 | 243 | 4.3 | 7.8 | 0.00 | 0.00 | 0.00 | 11 | 1021.7 |
| 20260508002609 | 68 | 248 | 5.2 | 7.0 | 0.00 | 0.00 | 0.00 | 10 | 1021.5 |
| 20260508002107 | 68 | 236 | 4.3 | 7.8 | 0.00 | 0.00 | 0.00 | 10 | 1021.7 |
| 20260508001602 | 68 | 240 | 4.3 | 7.0 | 0.00 | 0.00 | 0.00 | 10 | 1021.8 |
| 20260508001058 | 68 | 261 | 3.5 | 7.0 | 0.00 | 0.00 | 0.00 | 10 | 1021.7 |
| 20260508000554 | 68 | 205 | 2.6 | 6.1 | 0.00 | 0.00 | 0.00 | 10 | 1021.7 |
| 20260508000052 | 68 | 221 | 3.5 | 6.1 | 0.00 | 0.00 | 0.00 | 10 | 1021.7 |
| 20260507235548 | 69 | 221 | 0.9 | 3.5 | 0.00 | 0.00 | 0.00 | 10 | 1021.8 |
| 20260507235046 | 68 | 227 | 4.3 | 7.8 | 0.00 | 0.00 | 0.00 | 11 | 1021.7 |
| 20260507234542 | 69 | 284 | 4.3 | 7.8 | 0.00 | 0.00 | 0.00 | 11 | 1021.8 |
| 20260507234039 | 69 | 224 | 4.3 | 7.8 | 0.00 | 0.00 | 0.00 | 11 | 1021.9 |
| 20260507233535 | 69 | 307 | 3.5 | 5.2 | 0.00 | 0.00 | 0.00 | 12 | 1021.7 |
| 20260507233034 | 69 | 302 | 6.1 | 7.8 | 0.00 | 0.00 | 0.00 | 12 | 1021.9 |
| 20260507232530 | 70 | 206 | 2.6 | 6.1 | 0.00 | 0.00 | 0.00 | 12 | 1021.9 |
| 20260507232028 | 69 | 271 | 6.1 | 7.0 | 0.00 | 0.00 | 0.00 | 12 | 1021.8 |
| 20260507231524 | 69 | 234 | 2.6 | 9.6 | 0.00 | 0.00 | 0.00 | 12 | 1021.7 |
| 20260507231021 | 68 | 260 | 3.5 | 7.8 | 0.00 | 0.00 | 0.00 | 12 | 1021.7 |
| 20260507230518 | 69 | 273 | 3.5 | 7.8 | 0.00 | 0.00 | 0.00 | 12 | 1021.9 |
| 20260507230014 | 70 | 346 | 4.3 | 5.2 | 0.00 | 0.00 | 0.00 | 12 | 1021.9 |
| 20260507225510 | 68 | 238 | 5.2 | 8.7 | 0.00 | 0.00 | 0.00 | 12 | 1021.8 |
| 20260507225006 | 69 | 186 | 1.7 | 8.7 | 0.00 | 0.00 | 0.00 | 12 | 1021.8 |
| 20260507224502 | 68 | 250 | 7.0 | 11.3 | 0.00 | 0.00 | 0.00 | 12 | 1021.7 |
| 20260507223958 | 70 | 241 | 7.8 | 13.0 | 0.00 | 0.00 | 0.00 | 12 | 1021.9 |
| 20260507223454 | 70 | 219 | 0.0 | 3.5 | 0.00 | 0.00 | 0.00 | 13 | 1021.9 |
| 20260507222952 | 69 | 249 | 5.2 | 7.0 | 0.00 | 0.00 | 0.00 | 13 | 1022.0 |
| 20260507222448 | 69 | 249 | 3.5 | 5.2 | 0.00 | 0.00 | 0.00 | 13 | 1022.1 |
| 20260507221945 | 69 | 312 | 1.7 | 5.2 | 0.00 | 0.00 | 0.00 | 13 | 1021.9 |
| 20260507221442 | 68 | 231 | 2.6 | 3.5 | 0.00 | 0.00 | 0.00 | 13 | 1022.0 |
| 20260507220938 | 68 | 269 | 6.1 | 7.8 | 0.00 | 0.00 | 0.00 | 13 | 1021.9 |
| 20260507220436 | 69 | 271 | 6.1 | 7.8 | 0.00 | 0.00 | 0.00 | 13 | 1022.1 |
| 20260507215932 | 68 | 233 | 3.5 | 7.0 | 0.00 | 0.00 | 0.00 | 12 | 1022.3 |
| 20260507215429 | 68 | 238 | 6.1 | 7.0 | 0.00 | 0.00 | 0.00 | 12 | 1022.3 |
| 20260507214926 | 70 | 294 | 6.1 | 8.7 | 0.00 | 0.00 | 0.00 | 12 | 1022.4 |
| 20260507214424 | 69 | 206 | 5.2 | 8.7 | 0.00 | 0.00 | 0.00 | 12 | 1022.5 |
| 20260507213919 | 70 | 231 | 6.1 | 11.3 | 0.00 | 0.00 | 0.00 | 12 | 1022.6 |
| 20260507213416 | 69 | 244 | 4.3 | 8.7 | 0.00 | 0.00 | 0.00 | 12 | 1022.4 |
| 20260507212913 | 68 | 235 | 2.6 | 7.0 | 0.00 | 0.00 | 0.00 | 12 | 1022.5 |
| 20260507212409 | 68 | 267 | 3.5 | 7.0 | 0.00 | 0.00 | 0.00 | 12 | 1022.8 |
| 20260507211906 | 68 | 200 | 1.7 | 3.5 | 0.00 | 0.00 | 0.00 | 13 | 1022.9 |
| 20260507211402 | 68 | 250 | 4.3 | 6.1 | 0.00 | 0.00 | 0.00 | 13 | 1022.8 |
| 20260507210859 | 69 | 226 | 6.1 | 12.2 | 0.00 | 0.00 | 0.00 | 13 | 1022.9 |
| 20260507210356 | 69 | 347 | 1.7 | 5.2 | 0.00 | 0.00 | 0.00 | 13 | 1022.9 |
| 20260507205853 | 71 | 241 | 6.1 | 8.7 | 0.00 | 0.00 | 0.00 | 13 | 1022.9 |
| 20260507205349 | 69 | 233 | 2.6 | 6.1 | 0.00 | 0.00 | 0.00 | 13 | 1023.0 |
| 20260507204846 | 70 | 228 | 2.6 | 7.8 | 0.00 | 0.00 | 0.00 | 14 | 1022.9 |
| 20260507204343 | 68 | 197 | 0.9 | 7.0 | 0.00 | 0.00 | 0.00 | 15 | 1023.0 |
| 20260507203841 | 68 | 178 | 3.5 | 6.1 | 0.00 | 0.00 | 0.00 | 15 | 1023.1 |
| 20260507203338 | 69 | 226 | 7.8 | 12.2 | 0.00 | 0.00 | 0.00 | 15 | 1022.9 |
| 20260507202834 | 66 | 12 | 0.9 | 5.2 | 0.00 | 0.00 | 0.00 | 15 | 1023.4 |
| 20260507202331 | 66 | 232 | 3.5 | 7.8 | 0.00 | 0.00 | 0.00 | 15 | 1023.2 |
| 20260507201826 | 67 | 297 | 4.3 | 7.8 | 0.00 | 0.00 | 0.00 | 15 | 1023.5 |
| 20260507201322 | 67 | 254 | 3.5 | 6.1 | 0.00 | 0.00 | 0.00 | 14 | 1023.4 |
| 20260507200819 | 66 | 331 | 3.5 | 6.1 | 0.00 | 0.00 | 0.00 | 14 | 1023.5 |
| 20260507200315 | 67 | 258 | 1.7 | 7.8 | 0.00 | 0.00 | 0.00 | 14 | 1023.6 |
| 20260507195811 | 66 | 246 | 2.6 | 6.1 | 0.00 | 0.00 | 0.00 | 14 | 1023.7 |
| 20260507195308 | 66 | 247 | 5.2 | 8.7 | 0.00 | 0.00 | 0.00 | 14 | 1023.7 |
| 20260507194806 | 67 | 335 | 3.5 | 7.8 | 0.00 | 0.00 | 0.00 | 14 | 1023.6 |
| 20260507194302 | 65 | 271 | 4.3 | 6.1 | 0.00 | 0.00 | 0.00 | 15 | 1023.6 |
| 20260507193758 | 66 | 302 | 3.5 | 7.8 | 0.00 | 0.00 | 0.00 | 15 | 1023.9 |
| 20260507193255 | 67 | 305 | 3.5 | 6.1 | 0.00 | 0.00 | 0.00 | 14 | 1024.0 |
| 20260507192751 | 64 | 240 | 5.2 | 7.0 | 0.00 | 0.00 | 0.00 | 15 | 1024.1 |
| 20260507192248 | 66 | 278 | 2.6 | 5.2 | 0.00 | 0.00 | 0.00 | 14 | 1024.3 |
| 20260507191744 | 65 | 214 | 0.9 | 7.0 | 0.00 | 0.00 | 0.00 | 14 | 1024.3 |
| 20260507191241 | 64 | 232 | 2.6 | 6.1 | 0.00 | 0.00 | 0.00 | 15 | 1024.3 |
| 20260507190738 | 65 | 338 | 6.1 | 8.7 | 0.00 | 0.00 | 0.00 | 14 | 1024.5 |
| 20260507190236 | 64 | 224 | 2.6 | 3.5 | 0.00 | 0.00 | 0.00 | 16 | 1024.5 |
| 20260507185735 | 64 | 340 | 6.1 | 8.7 | 0.00 | 0.00 | 0.00 | 16 | 1024.6 |
| 20260507185231 | 64 | 1 | 4.3 | 8.7 | 0.00 | 0.00 | 0.00 | 16 | 1024.6 |
| 20260507184729 | 66 | 330 | 5.2 | 7.8 | 0.00 | 0.00 | 0.00 | 16 | 1024.6 |
| 20260507184227 | 63 | 294 | 3.5 | 7.8 | 0.00 | 0.00 | 0.00 | 16 | 1024.6 |
| 20260507183723 | 62 | 275 | 6.1 | 7.8 | 0.00 | 0.00 | 0.00 | 15 | 1024.8 |
| 20260507183220 | 63 | 261 | 1.7 | 7.0 | 0.00 | 0.00 | 0.00 | 17 | 1025.1 |
| 20260507182717 | 62 | 225 | 3.5 | 8.7 | 0.00 | 0.00 | 0.00 | 17 | 1024.8 |
| 20260507182212 | 62 | 256 | 5.2 | 7.0 | 0.00 | 0.00 | 0.00 | 17 | 1024.8 |
| 20260507181709 | 63 | 260 | 1.7 | 6.1 | 0.00 | 0.00 | 0.00 | 16 | 1024.8 |
| 20260507181206 | 62 | 311 | 6.1 | 7.0 | 0.00 | 0.00 | 0.00 | 17 | 1025.1 |
| 20260507180702 | 62 | 297 | 2.6 | 5.2 | 0.00 | 0.00 | 0.00 | 16 | 1025.2 |
| 20260507180159 | 62 | 12 | 2.6 | 7.8 | 0.00 | 0.00 | 0.00 | 17 | 1025.2 |
| 20260507175655 | 62 | 195 | 1.7 | 7.8 | 0.00 | 0.00 | 0.00 | 16 | 1025.3 |
| 20260507175152 | 62 | 348 | 1.7 | 7.0 | 0.00 | 0.00 | 0.00 | 16 | 1025.1 |
| 20260507174649 | 63 | 277 | 5.2 | 7.0 | 0.00 | 0.00 | 0.00 | 16 | 1025.2 |
| 20260507174148 | 61 | 298 | 0.9 | 5.2 | 0.00 | 0.00 | 0.00 | 17 | 1025.4 |
| 20260507173644 | 62 | 91 | 2.6 | 8.7 | 0.00 | 0.00 | 0.00 | 17 | 1025.3 |
| 20260507173141 | 61 | 291 | 3.5 | 6.1 | 0.00 | 0.00 | 0.00 | 18 | 1025.4 |
| 20260507172637 | 61 | 331 | 5.2 | 7.0 | 0.00 | 0.00 | 0.00 | 17 | 1025.4 |
| 20260507172135 | 62 | 288 | 2.6 | 6.1 | 0.00 | 0.00 | 0.00 | 18 | 1025.4 |
| 20260507171629 | 61 | 21 | 6.1 | 8.7 | 0.00 | 0.00 | 0.00 | 18 | 1025.4 |
| 20260507171127 | 60 | 316 | 7.0 | 8.7 | 0.00 | 0.00 | 0.00 | 19 | 1025.4 |
| 20260507170624 | 59 | 58 | 4.3 | 7.0 | 0.00 | 0.00 | 0.00 | 19 | 1025.3 |
| 20260507170121 | 60 | 295 | 6.1 | 9.6 | 0.00 | 0.00 | 0.00 | 19 | 1025.6 |
| 20260507165616 | 60 | 309 | 2.6 | 9.6 | 0.00 | 0.00 | 0.00 | 19 | 1025.3 |
| 20260507165113 | 60 | 307 | 2.6 | 7.8 | 0.00 | 0.00 | 0.00 | 19 | 1025.8 |
| 20260507164609 | 60 | 296 | 3.5 | 7.0 | 0.00 | 0.00 | 0.00 | 19 | 1025.4 |
| 20260507164106 | 61 | 222 | 5.2 | 8.7 | 0.00 | 0.00 | 0.00 | 19 | 1025.6 |
| 20260507163604 | 60 | 285 | 4.3 | 6.1 | 0.00 | 0.00 | 0.00 | 21 | 1025.4 |
| 20260507163102 | 58 | 65 | 7.0 | 9.6 | 0.00 | 0.00 | 0.00 | 22 | 1025.6 |
| 20260507162601 | 59 | 144 | 2.6 | 7.0 | 0.00 | 0.00 | 0.00 | 23 | 1025.7 |
| 20260507162059 | 60 | 350 | 2.6 | 7.0 | 0.00 | 0.00 | 0.00 | 21 | 1025.6 |
| 20260507161555 | 59 | 11 | 3.5 | 7.8 | 0.00 | 0.00 | 0.00 | 22 | 1025.6 |
| 20260507161051 | 57 | 226 | 4.3 | 7.8 | 0.00 | 0.00 | 0.00 | 22 | 1025.8 |
| 20260507160548 | 57 | 311 | 4.3 | 7.0 | 0.00 | 0.00 | 0.00 | 22 | 1025.6 |
| 20260507160044 | 58 | 271 | 6.1 | 7.8 | 0.00 | 0.00 | 0.00 | 22 | 1025.6 |
| 20260507155539 | 57 | 293 | 4.3 | 7.0 | 0.00 | 0.00 | 0.00 | 23 | 1025.9 |
| 20260507155037 | 57 | 354 | 3.5 | 7.0 | 0.00 | 0.00 | 0.00 | 24 | 1026.0 |
| 20260507154534 | 58 | 301 | 3.5 | 8.7 | 0.00 | 0.00 | 0.00 | 23 | 1025.8 |
| 20260507154031 | 57 | 321 | 6.1 | 7.8 | 0.00 | 0.00 | 0.00 | 23 | 1025.8 |
| 20260507153528 | 57 | 332 | 6.1 | 7.8 | 0.00 | 0.00 | 0.00 | 23 | 1025.6 |
| 20260507153024 | 57 | 43 | 3.5 | 9.6 | 0.00 | 0.00 | 0.00 | 24 | 1025.7 |